This is the latest recevied weather packets stored in our database for station/object WX5RP. If no packets are shown the sender has not sent any weather packets the latest 10 day(s).
| Time | Temp. | Humidity | Pressure | Rain* | Wind** | Luminosity | Snow |
|---|---|---|---|---|---|---|---|
| 1777832716 | 21.11° C | 33% | 1016 hPa | 0 mm | - | 888 W/m² | - |
| 1777832116 | 20.56° C | 36% | 1016 hPa | 0 mm | - | 850 W/m² | - |
| 1777831516 | 20° C | 38% | 1015.8 hPa | 0 mm | - | 785 W/m² | - |
| 1777830916 | 20° C | 38% | 1016.1 hPa | 0 mm | - | 835 W/m² | - |
| 1777830316 | 20° C | 39% | 1016.2 hPa | 0 mm | - | 822 W/m² | - |
| 1777829716 | 19.44° C | 38% | 1016.4 hPa | 0 mm | - | 814 W/m² | - |
| 1777829116 | 18.89° C | 40% | 1016.8 hPa | 0 mm | - | 796 W/m² | - |
| 1777828516 | 18.33° C | 42% | 1016.9 hPa | 0 mm | - | 767 W/m² | - |
| 1777827916 | 18.33° C | 43% | 1016.1 hPa | 0 mm | - | 746 W/m² | - |
| 1777827316 | 17.22° C | 45% | 1016.3 hPa | 0 mm | - | 716 W/m² | - |
| 1777826716 | 16.67° C | 49% | 1016.3 hPa | 0 mm | - | 690 W/m² | - |
| 1777826116 | 16.67° C | 48% | 1016.6 hPa | 0 mm | - | 665 W/m² | - |
| 1777825516 | 16.11° C | 50% | 1016.7 hPa | 0 mm | - | 643 W/m² | - |
| 1777824915 | 15.56° C | 50% | 1016.4 hPa | 0 mm | - | 626 W/m² | - |
| 1777824319 | 13.89° C | 57% | 1016.7 hPa | 0 mm | - | 650 W/m² | - |
| 1777823715 | 13.33° C | 59% | 1016.9 hPa | 0 mm | - | 672 W/m² | - |
| 1777823116 | 12.22° C | 64% | 1016.9 hPa | 0 mm | - | 658 W/m² | - |
| 1777822515 | 11.11° C | 70% | 1017.4 hPa | 0 mm | - | 517 W/m² | - |
| 1777821915 | 9.44° C | 74% | 1017.3 hPa | 0 mm | - | 393 W/m² | - |
| 1777821315 | 8.89° C | 74% | 1017 hPa | 0 mm | - | 158 W/m² | - |
| 1777820715 | 8.33° C | 74% | 1016.9 hPa | 0 mm | - | 210 W/m² | - |
| 1777820118 | 7.78° C | 77% | 1017.2 hPa | 0 mm | - | 301 W/m² | - |
| 1777819515 | 7.22° C | 79% | 1017.2 hPa | 0 mm | - | 270 W/m² | - |
| 1777818917 | 6.67° C | 79% | 1017.2 hPa | 0 mm | - | 107 W/m² | - |
| 1777818317 | 6.11° C | 81% | 1017.6 hPa | 0 mm | - | 245 W/m² | - |
* Rain latest hour (hover to see other rain measurements)
** Current wind speed in m/s (hover to see current wind gust speed)